FW1212 Weather Reports


time (UTC)temp
C
wind
direction
speed
KPH
gust
KPH
rain 1hr
cm
rain 24hr
cm
rain mn
cm
humidity
%
barometer
mb
20260906063057 15 103 1.6 11.3 0.00 0.15 0.03 77 1014.2
20260906061559 15 157 6.4 16.1 0.00 0.15 0.03 77 1014.2
20260906060053 15 172 6.4 20.9 0.00 0.15 0.03 79 1014.2
20260906054602 14 161 9.7 20.9 0.00 0.15 0.03 80 1014.2
20260906053056 13 173 1.6 6.4 0.00 0.15 0.03 83 1014.1
20260906051606 13 164 3.2 14.5 0.00 0.15 0.03 83 1013.9
20260906050047 13 154 4.8 11.3 0.00 0.15 0.03 85 1014.0
20260906044551 12 181 0.0 9.7 0.00 0.15 0.03 89 1013.9
20260906043047 12 301 0.0 3.2 0.03 0.15 0.03 90 1013.9
20260906041543 11 301 0.0 1.6 0.03 0.15 0.03 90 1013.8
20260906040121 11 225 0.0 0.0 0.03 0.15 0.03 90 1013.6
20260906034543 11 240 0.0 0.0 0.03 0.15 0.03 90 1013.6
20260906033054 11 240 0.0 0.0 0.00 0.15 0.00 90 1013.6
20260906031540 11 240 0.0 0.0 0.00 0.15 0.00 90 1013.6
20260906030038 10 275 0.0 0.0 0.00 0.15 0.00 90 1013.6
20260906024537 10 269 0.0 0.0 0.00 0.15 0.00 90 1013.6
20260906023035 10 269 0.0 0.0 0.00 0.15 0.00 90 1013.5
20260906021533 10 269 0.0 0.0 0.00 0.15 0.00 89 1013.5
20260906020029 10 269 0.0 0.0 0.00 0.15 0.00 89 1013.4
20260906014530 10 269 0.0 0.0 0.00 0.15 0.00 89 1013.2
20260906013032 10 269 0.0 0.0 0.00 0.15 0.00 89 1013.2
20260906011528 10 250 0.0 0.0 0.00 0.15 0.00 89 1013.4
20260906010026 11 250 0.0 0.0 0.00 0.15 0.00 88 1013.3
20260906004526 11 250 0.0 0.0 0.00 0.15 0.00 88 1013.4
20260906003025 11 250 0.0 0.0 0.00 0.15 0.00 88 1013.4
20260906001525 11 250 0.0 0.0 0.00 0.15 0.00 88 1013.5
20260906000022 11 256 0.0 0.0 0.00 0.15 0.00 87 1013.5
20260905234521 11 258 0.0 0.0 0.00 0.15 0.00 87 1013.3
20260905233021 11 258 0.0 0.0 0.00 0.15 0.00 87 1013.3
20260905231520 11 258 0.0 3.2 0.00 0.15 0.00 87 1013.2
20260905230015 12 277 0.0 1.6 0.00 0.15 0.00 86 1013.3
20260905224527 12 277 0.0 0.0 0.00 0.15 0.00 86 1013.5
20260905223013 12 276 0.0 0.0 0.00 0.15 0.00 85 1013.5
20260905221509 13 276 0.0 0.0 0.00 0.15 0.00 84 1013.5
20260905220007 13 276 0.0 3.2 0.00 0.15 0.00 84 1013.6
20260905214505 13 264 0.0 4.8 0.00 0.15 0.00 83 1013.5
20260905213004 13 274 1.6 6.4 0.00 0.15 0.00 83 1013.5
20260905211506 13 277 0.0 4.8 0.00 0.15 0.00 84 1013.4
20260905210105 13 271 1.6 6.4 0.00 0.15 0.00 84 1013.3
20260905204558 14 283 0.0 4.8 0.00 0.15 0.15 84 1013.1
20260905203058 13 233 1.6 6.4 0.00 0.15 0.15 85 1013.0
20260905201558 13 280 0.0 0.0 0.00 0.15 0.15 86 1013.0
20260905200054 13 266 0.0 0.0 0.00 0.15 0.15 87 1013.0
20260905194554 14 254 0.0 0.0 0.03 0.15 0.15 86 1012.7
20260905193052 14 254 0.0 1.6 0.03 0.15 0.15 86 1012.7
20260905191557 15 194 0.0 1.6 0.03 0.15 0.15 86 1012.7
20260905190051 15 175 0.0 3.2 0.03 0.15 0.15 86 1012.8
20260905184559 15 183 0.0 1.6 0.00 0.13 0.13 85 1012.8
20260905183049 15 162 0.0 1.6 0.00 0.13 0.13 85 1012.6
20260905181549 15 227 0.0 1.6 0.00 0.13 0.13 85 1012.5
20260905180058 15 221 0.0 3.2 0.00 0.13 0.13 86 1012.5
20260905174548 16 221 0.0 1.6 0.00 0.13 0.13 87 1012.3
20260905173103 16 161 0.0 0.0 0.00 0.13 0.13 87 1012.1
20260905171546 16 161 0.0 1.6 0.00 0.13 0.13 86 1012.1
20260905170050 16 169 0.0 4.8 0.00 0.13 0.13 85 1011.8
20260905164543 16 174 0.0 4.8 0.00 0.13 0.13 84 1011.6
20260905163043 16 152 0.0 3.2 0.00 0.13 0.13 84 1011.4
20260905161600 16 152 1.6 4.8 0.03 0.13 0.13 84 1011.7
20260905160041 16 185 0.0 3.2 0.03 0.13 0.13 83 1011.4
20260905154545 16 195 0.0 3.2 0.08 0.13 0.13 83 1011.4
20260905153040 16 245 0.0 1.6 0.13 0.13 0.13 82 1011.7
20260905151540 16 245 0.0 4.8 0.10 0.10 0.10 80 1011.6
20260905150039 17 277 1.6 16.1 0.10 0.10 0.10 77 1011.7
20260905144538 18 175 3.2 17.7 0.05 0.05 0.05 70 1011.8
20260905143036 21 271 3.2 9.7 0.00 0.00 0.00 60 1011.7
20260905141534 22 66 3.2 16.1 0.00 0.00 0.00 55 1011.0
20260905140036 22 144 3.2 16.1 0.00 0.00 0.00 53 1011.0
20260905134535 23 261 3.2 12.9 0.00 0.00 0.00 49 1010.8
20260905133037 23 154 4.8 12.9 0.00 0.00 0.00 48 1010.7
20260905131531 24 170 8.0 20.9 0.00 0.00 0.00 48 1010.8
20260905130031 25 302 9.7 19.3 0.00 0.00 0.00 51 1010.3
20260905124530 26 289 3.2 16.1 0.00 0.00 0.00 54 1010.1
20260905123029 26 229 3.2 9.7 0.00 0.00 0.00 54 1010.0
20260905121529 26 194 3.2 17.7 0.00 0.00 0.00 53 1009.9
20260905120027 27 155 4.8 11.3 0.00 0.00 0.00 53 1009.9
20260905114528 27 185 6.4 22.5 0.00 0.00 0.00 52 1009.7
20260905113027 27 148 9.7 22.5 0.00 0.00 0.00 51 1009.6
20260905111526 28 152 8.0 22.5 0.00 0.00 0.00 51 1009.3
20260905110025 27 178 9.7 29.0 0.00 0.00 0.00 51 1009.4
20260905104525 28 166 8.0 25.7 0.00 0.00 0.00 50 1009.4
20260905103022 27 180 11.3 30.6 0.00 0.00 0.00 51 1009.3
20260905101525 27 127 6.4 27.4 0.00 0.00 0.00 52 1009.3
20260905100041 27 93 12.9 25.7 0.00 0.00 0.00 52 1009.4
20260905094520 27 204 12.9 22.5 0.00 0.00 0.00 50 1009.1
20260905093019 27 154 9.7 20.9 0.00 0.00 0.00 51 1009.3
20260905091516 27 190 11.3 24.1 0.00 0.00 0.00 52 1009.3
20260905090015 27 209 11.3 25.7 0.00 0.00 0.00 51 1009.1
20260905084512 26 151 12.9 20.9 0.00 0.00 0.00 53 1009.0
20260905083011 26 156 4.8 22.5 0.00 0.00 0.00 54 1008.9
20260905081509 26 224 3.2 22.5 0.00 0.00 0.00 55 1009.2
20260905080005 26 152 6.4 17.7 0.00 0.00 0.00 56 1009.1
20260905074626 25 175 3.2 16.1 0.00 0.00 0.00 59 1009.3
20260905073100 24 117 6.4 17.7 0.00 0.00 0.00 60 1009.5
20260905071555 23 158 6.4 14.5 0.00 0.00 0.00 62 1009.4
20260905070051 22 115 4.8 14.5 0.00 0.00 0.00 67 1009.4
20260905064602 21 152 3.2 14.5 0.00 0.00 0.00 68 1009.6